Time,TemperatureF,DewpointF,PressureIn,WindDirection,WindDirectionDegrees,WindSpeedMPH,WindSpeedGustMPH,Humidity,HourlyPrecipIn,Conditions,Clouds,dailyrainin,SoftwareType,DateUTC
2013-01-29 01:00:00,16.0,-99.9,-100.00,WNW,288,12.0,19.0,-999,-99.99,,,-99.99,,2013-01-29 08:00:00,
2013-01-29 01:32:00,16.0,-99.9,-100.00,WNW,288,12.0,19.0,-999,-99.99,,,-99.99,,2013-01-29 08:32:00,
2013-01-29 01:42:00,16.0,-99.9,-100.00,WNW,288,12.0,19.0,-999,-99.99,,,-99.99,,2013-01-29 08:42:00,
2013-01-29 01:52:00,16.0,-99.9,-100.00,WNW,288,12.0,19.0,-999,-99.99,,,-99.99,,2013-01-29 08:52:00,
2013-01-29 02:00:00,14.0,-99.9,-100.00,WNW,284,10.0,12.0,-999,-99.99,,,-99.99,,2013-01-29 09:00:00,
2013-01-29 02:32:00,14.0,-99.9,-100.00,WNW,284,10.0,12.0,-999,-99.99,,,-99.99,,2013-01-29 09:32:00,
2013-01-29 02:42:00,14.0,-99.9,-100.00,WNW,284,10.0,12.0,-999,-99.99,,,-99.99,,2013-01-29 09:42:00,
2013-01-29 02:52:00,14.0,-99.9,-100.00,WNW,284,10.0,12.0,-999,-99.99,,,-99.99,,2013-01-29 09:52:00,
2013-01-29 03:00:00,12.0,-99.9,-100.00,West,261,10.0,11.0,-999,-99.99,,,-99.99,,2013-01-29 10:00:00,
2013-01-29 03:32:00,12.0,-99.9,-100.00,West,261,10.0,11.0,-999,-99.99,,,-99.99,,2013-01-29 10:32:00,
2013-01-29 03:42:00,12.0,-99.9,-100.00,West,261,10.0,11.0,-999,-99.99,,,-99.99,,2013-01-29 10:42:00,
2013-01-29 03:52:00,12.0,-99.9,-100.00,West,261,10.0,11.0,-999,-99.99,,,-99.99,,2013-01-29 10:52:00,
2013-01-29 04:00:00,14.0,-99.9,-100.00,NW,305,10.0,15.0,-999,-99.99,,,-99.99,,2013-01-29 11:00:00,
2013-01-29 04:32:00,14.0,-99.9,-100.00,NW,305,10.0,15.0,-999,-99.99,,,-99.99,,2013-01-29 11:32:00,
2013-01-29 04:42:00,14.0,-99.9,-100.00,NW,305,10.0,15.0,-999,-99.99,,,-99.99,,2013-01-29 11:42:00,
2013-01-29 04:53:00,14.0,-99.9,-100.00,NW,305,10.0,15.0,-999,-99.99,,,-99.99,,2013-01-29 11:53:00,
2013-01-29 05:00:00,7.0,-99.9,-100.00,NE,51,8.0,9.0,-999,-99.99,,,-99.99,,2013-01-29 12:00:00,
2013-01-29 05:33:00,7.0,-99.9,-100.00,NE,51,8.0,9.0,-999,-99.99,,,-99.99,,2013-01-29 12:33:00,
2013-01-29 05:43:00,7.0,-99.9,-100.00,NE,51,8.0,9.0,-999,-99.99,,,-99.99,,2013-01-29 12:43:00,
2013-01-29 05:53:00,7.0,-99.9,-100.00,NE,51,8.0,9.0,-999,-99.99,,,-99.99,,2013-01-29 12:53:00,
2013-01-29 06:00:00,4.0,-99.9,-100.00,NE,40,7.0,7.0,-999,-99.99,,,-99.99,,2013-01-29 13:00:00,
2013-01-29 06:32:00,4.0,-99.9,-100.00,NE,40,7.0,7.0,-999,-99.99,,,-99.99,,2013-01-29 13:32:00,
2013-01-29 06:43:00,4.0,-99.9,-100.00,NE,40,7.0,7.0,-999,-99.99,,,-99.99,,2013-01-29 13:43:00,
2013-01-29 06:53:00,4.0,-99.9,-100.00,NE,40,7.0,7.0,-999,-99.99,,,-99.99,,2013-01-29 13:53:00,
2013-01-29 07:00:00,10.0,-99.9,-100.00,WSW,254,1.0,2.0,-999,-99.99,,,-99.99,,2013-01-29 14:00:00,
2013-01-29 07:33:00,10.0,-99.9,-100.00,WSW,254,1.0,2.0,-999,-99.99,,,-99.99,,2013-01-29 14:33:00,
2013-01-29 07:43:00,10.0,-99.9,-100.00,WSW,254,1.0,2.0,-999,-99.99,,,-99.99,,2013-01-29 14:43:00,
2013-01-29 07:53:00,10.0,-99.9,-100.00,WSW,254,1.0,2.0,-999,-99.99,,,-99.99,,2013-01-29 14:53:00,
2013-01-29 08:00:00,9.0,-99.9,-100.00,SSW,212,0.0,0.0,-999,-99.99,,,-99.99,,2013-01-29 15:00:00,
2013-01-29 08:33:00,9.0,-99.9,-100.00,SSW,212,0.0,0.0,-999,-99.99,,,-99.99,,2013-01-29 15:33:00,
2013-01-29 08:43:00,9.0,-99.9,-100.00,SSW,212,0.0,0.0,-999,-99.99,,,-99.99,,2013-01-29 15:43:00,
2013-01-29 08:53:00,9.0,-99.9,-100.00,SSW,212,0.0,0.0,-999,-99.99,,,-99.99,,2013-01-29 15:53:00,
2013-01-29 09:00:00,10.0,-99.9,-100.00,ESE,108,3.0,4.0,-999,-99.99,,,-99.99,,2013-01-29 16:00:00,
2013-01-29 09:33:00,10.0,-99.9,-100.00,ESE,108,3.0,4.0,-999,-99.99,,,-99.99,,2013-01-29 16:33:00,
2013-01-29 09:43:00,10.0,-99.9,-100.00,ESE,108,3.0,4.0,-999,-99.99,,,-99.99,,2013-01-29 16:43:00,
2013-01-29 09:53:00,10.0,-99.9,-100.00,ESE,108,3.0,4.0,-999,-99.99,,,-99.99,,2013-01-29 16:53:00,
2013-01-29 10:00:00,20.0,-99.9,-100.00,East,97,1.0,2.0,-999,-99.99,,,-99.99,,2013-01-29 17:00:00,
2013-01-29 10:33:00,20.0,-99.9,-100.00,East,97,1.0,2.0,-999,-99.99,,,-99.99,,2013-01-29 17:33:00,
2013-01-29 10:43:00,20.0,-99.9,-100.00,East,97,1.0,2.0,-999,-99.99,,,-99.99,,2013-01-29 17:43:00,
2013-01-29 10:53:00,20.0,-99.9,-100.00,East,97,1.0,2.0,-999,-99.99,,,-99.99,,2013-01-29 17:53:00,
2013-01-29 11:00:00,20.0,-99.9,-100.00,WNW,290,26.0,32.0,-999,-99.99,,,-99.99,,2013-01-29 18:00:00,
2013-01-29 11:34:00,20.0,-99.9,-100.00,WNW,290,26.0,32.0,-999,-99.99,,,-99.99,,2013-01-29 18:34:00,
2013-01-29 11:43:00,20.0,-99.9,-100.00,WNW,290,26.0,32.0,-999,-99.99,,,-99.99,,2013-01-29 18:43:00,
2013-01-29 11:52:00,20.0,-99.9,-100.00,WNW,290,26.0,32.0,-999,-99.99,,,-99.99,,2013-01-29 18:52:00,
2013-01-29 12:00:00,20.0,-99.9,-100.00,WNW,290,26.0,30.0,-999,-99.99,,,-99.99,,2013-01-29 19:00:00,
2013-01-29 12:33:00,20.0,-99.9,-100.00,WNW,290,26.0,30.0,-999,-99.99,,,-99.99,,2013-01-29 19:33:00,
2013-01-29 12:42:00,20.0,-99.9,-100.00,WNW,290,26.0,30.0,-999,-99.99,,,-99.99,,2013-01-29 19:42:00,
2013-01-29 12:52:00,20.0,-99.9,-100.00,WNW,290,26.0,30.0,-999,-99.99,,,-99.99,,2013-01-29 19:52:00,
2013-01-29 13:00:00,20.0,-99.9,-100.00,WNW,290,23.0,26.0,-999,-99.99,,,-99.99,,2013-01-29 20:00:00,
2013-01-29 13:34:00,20.0,-99.9,-100.00,WNW,290,23.0,26.0,-999,-99.99,,,-99.99,,2013-01-29 20:34:00,
2013-01-29 13:43:00,20.0,-99.9,-100.00,WNW,290,23.0,26.0,-999,-99.99,,,-99.99,,2013-01-29 20:43:00,
2013-01-29 13:54:00,20.0,-99.9,-100.00,WNW,290,23.0,26.0,-999,-99.99,,,-99.99,,2013-01-29 20:54:00,
2013-01-29 14:00:00,19.0,-99.9,-100.00,WNW,298,23.0,26.0,-999,-99.99,,,-99.99,,2013-01-29 21:00:00,
2013-01-29 14:34:00,19.0,-99.9,-100.00,WNW,298,23.0,26.0,-999,-99.99,,,-99.99,,2013-01-29 21:34:00,
2013-01-29 14:43:00,19.0,-99.9,-100.00,WNW,298,23.0,26.0,-999,-99.99,,,-99.99,,2013-01-29 21:43:00,
2013-01-29 14:53:00,19.0,-99.9,-100.00,WNW,298,23.0,26.0,-999,-99.99,,,-99.99,,2013-01-29 21:53:00,
2013-01-29 15:00:00,19.0,-99.9,-100.00,WNW,301,17.0,28.0,-999,-99.99,,,-99.99,,2013-01-29 22:00:00,
2013-01-29 15:33:00,19.0,-99.9,-100.00,WNW,301,17.0,28.0,-999,-99.99,,,-99.99,,2013-01-29 22:33:00,
2013-01-29 15:43:00,19.0,-99.9,-100.00,WNW,301,17.0,28.0,-999,-99.99,,,-99.99,,2013-01-29 22:43:00,
2013-01-29 15:53:00,19.0,-99.9,-100.00,WNW,301,17.0,28.0,-999,-99.99,,,-99.99,,2013-01-29 22:53:00,
2013-01-29 16:00:00,17.0,-99.9,-100.00,NW,307,25.0,27.0,-999,-99.99,,,-99.99,,2013-01-29 23:00:00,
2013-01-29 16:33:00,17.0,-99.9,-100.00,NW,307,25.0,27.0,-999,-99.99,,,-99.99,,2013-01-29 23:33:00,
2013-01-29 16:43:00,17.0,-99.9,-100.00,NW,307,25.0,27.0,-999,-99.99,,,-99.99,,2013-01-29 23:43:00,
2013-01-29 16:53:00,17.0,-99.9,-100.00,NW,307,25.0,27.0,-999,-99.99,,,-99.99,,2013-01-29 23:53:00,
2013-01-29 17:00:00,16.0,-99.9,-100.00,WNW,301,14.0,15.0,-999,-99.99,,,-99.99,,2013-01-30 00:00:00,
2013-01-29 17:33:00,16.0,-99.9,-100.00,WNW,301,14.0,15.0,-999,-99.99,,,-99.99,,2013-01-30 00:33:00,
2013-01-29 17:43:00,16.0,-99.9,-100.00,WNW,301,14.0,15.0,-999,-99.99,,,-99.99,,2013-01-30 00:43:00,
2013-01-29 17:53:00,16.0,-99.9,-100.00,WNW,301,14.0,15.0,-999,-99.99,,,-99.99,,2013-01-30 00:53:00,
2013-01-29 18:00:00,14.0,-99.9,-100.00,ESE,113,1.0,1.0,-999,-99.99,,,-99.99,,2013-01-30 01:00:00,
2013-01-29 18:32:00,14.0,-99.9,-100.00,ESE,113,1.0,1.0,-999,-99.99,,,-99.99,,2013-01-30 01:32:00,
2013-01-29 18:43:00,14.0,-99.9,-100.00,ESE,113,1.0,1.0,-999,-99.99,,,-99.99,,2013-01-30 01:43:00,
2013-01-29 18:52:00,14.0,-99.9,-100.00,ESE,113,1.0,1.0,-999,-99.99,,,-99.99,,2013-01-30 01:52:00,
2013-01-29 19:00:00,14.0,-99.9,-100.00,NNW,333,3.0,5.0,-999,-99.99,,,-99.99,,2013-01-30 02:00:00,
2013-01-29 19:33:00,14.0,-99.9,-100.00,NNW,333,3.0,5.0,-999,-99.99,,,-99.99,,2013-01-30 02:33:00,
2013-01-29 19:42:00,14.0,-99.9,-100.00,NNW,333,3.0,5.0,-999,-99.99,,,-99.99,,2013-01-30 02:42:00,
2013-01-29 19:53:00,14.0,-99.9,-100.00,NNW,333,3.0,5.0,-999,-99.99,,,-99.99,,2013-01-30 02:53:00,
2013-01-29 20:00:00,12.0,-99.9,-100.00,SSW,203,0.0,13.0,-999,-99.99,,,-99.99,,2013-01-30 03:00:00,
2013-01-29 20:33:00,12.0,-99.9,-100.00,SSW,203,0.0,13.0,-999,-99.99,,,-99.99,,2013-01-30 03:33:00,
2013-01-29 20:42:00,12.0,-99.9,-100.00,SSW,203,0.0,13.0,-999,-99.99,,,-99.99,,2013-01-30 03:42:00,
2013-01-29 20:52:00,12.0,-99.9,-100.00,SSW,203,0.0,13.0,-999,-99.99,,,-99.99,,2013-01-30 03:52:00,
2013-01-29 21:00:00,13.0,-99.9,-100.00,WNW,302,15.0,18.0,-999,-99.99,,,-99.99,,2013-01-30 04:00:00,
2013-01-29 21:32:00,13.0,-99.9,-100.00,WNW,302,15.0,18.0,-999,-99.99,,,-99.99,,2013-01-30 04:32:00,
2013-01-29 21:42:00,13.0,-99.9,-100.00,WNW,302,15.0,18.0,-999,-99.99,,,-99.99,,2013-01-30 04:42:00,
2013-01-29 21:52:00,13.0,-99.9,-100.00,WNW,302,15.0,18.0,-999,-99.99,,,-99.99,,2013-01-30 04:52:00,
2013-01-29 22:00:00,11.0,-99.9,-100.00,WNW,302,9.0,12.0,-999,-99.99,,,-99.99,,2013-01-30 05:00:00,
2013-01-29 22:33:00,11.0,-99.9,-100.00,WNW,302,9.0,12.0,-999,-99.99,,,-99.99,,2013-01-30 05:33:00,
2013-01-29 22:43:00,11.0,-99.9,-100.00,WNW,302,9.0,12.0,-999,-99.99,,,-99.99,,2013-01-30 05:43:00,
2013-01-29 22:52:00,11.0,-99.9,-100.00,WNW,302,9.0,12.0,-999,-99.99,,,-99.99,,2013-01-30 05:52:00,
2013-01-29 23:00:00,10.0,-99.9,-100.00,NNW,328,7.0,8.0,-999,-99.99,,,-99.99,,2013-01-30 06:00:00,
2013-01-29 23:32:00,10.0,-99.9,-100.00,NNW,328,7.0,8.0,-999,-99.99,,,-99.99,,2013-01-30 06:32:00,
2013-01-29 23:42:00,10.0,-99.9,-100.00,NNW,328,7.0,8.0,-999,-99.99,,,-99.99,,2013-01-30 06:42:00,
2013-01-29 23:52:00,10.0,-99.9,-100.00,NNW,328,7.0,8.0,-999,-99.99,,,-99.99,,2013-01-30 06:52:00,